This demonstration page uses our WeatherBlox Daily Observations layout. Learn more.

Left ArrowRight Arrow

Hourly Observations for October 23, 2022

Temp ( °F °C ) Dew Point ( °F °C ) Humidity (%) Winds ( mph kmh ) Pressure ( in mb ) Visibility ( mi km ) Precip ( " mm )
12:51 am 00:51 Mostly Clear 69 20.6 50 10 51 51 NW 7 11 29.57 1001 10 16 0.00 0.00
1:51 am 01:51 Mostly Clear 66 18.9 51 10.6 59 59 NW 9 15 29.57 1002 10 16 0.00 0.00
2:51 am 02:51 Mostly Cloudy 68 20 52 11.1 57 57 NW 10 17 29.57 1002 10 16 0.00 0.00
3:51 am 03:51 Mostly Clear 66 18.9 51 10.6 59 59 WNW 10 17 29.58 1002 10 16 0.00 0.00
4:51 am 04:51 Clear 64 17.8 49 9.4 58 58 NW 10 17 29.59 1002 10 16 0.00 0.00
5:51 am 05:51 Clear 62 16.7 48 8.9 60 60 Calm 29.62 1003 10 16 0.00 0.00
6:51 am 06:51 Sunny 63 17.2 48 8.9 58 58 NW 16 26 29.62 1003 10 16 0.00 0.00
7:51 am 07:51 Sunny 66 18.9 47 8.3 50 50 NW 21 33 29.63 1004 10 16 0.00 0.00
8:51 am 08:51 Sunny 69 20.6 45 7.2 42 42 WNW 17 28 29.65 1004 10 16 0.00 0.00
9:51 am 09:51 Sunny 70 21.1 46 7.8 42 42 NW 20 31 29.64 1004 10 16 0.00 0.00
10:51 am 10:51 Sunny 72 22.2 44 6.7 37 37 NW 23 37 29.63 1003 10 16 0.00 0.00
11:51 am 11:51 Sunny 74 23.3 44 6.7 34 34 W 17 28 29.60 1002 10 16 0.00 0.00
12:51 pm 12:51 Mostly Sunny 74 23.3 40 4.4 29 29 WNW 18 30 29.58 1002 10 16 0.00 0.00
1:51 pm 13:51 Partly Cloudy 71 21.7 47 8.3 42 42 NW 24 39 29.58 1002 10 16 0.00 0.00
2:51 pm 14:51 Sunny 67 19.4 47 8.3 49 49 NW 25 41 29.60 1003 10 16 0.00 0.00
3:51 pm 15:51 Mostly Sunny 67 19.4 46 7.8 47 47 NW 24 39 29.63 1004 10 16 0.00 0.00
4:51 pm 16:51 Sunny 64 17.8 45 7.2 50 50 NW 13 20 29.65 1004 10 16 0.00 0.00
5:51 pm 17:51 Mostly Cloudy 63 17.2 45 7.2 52 52 NW 18 30 29.67 1005 10 16 0.00 0.00
6:51 pm 18:51 Partly Cloudy 62 16.7 45 7.2 53 53 NW 16 26 29.68 1005 10 16 0.00 0.00
7:51 pm 19:51 Cloudy 59 15 47 8.3 64 64 NNW 14 22 29.72 1006 10 16 0.00 0.00
8:51 pm 20:51 Cloudy 57 13.9 49 9.4 74 74 WNW 13 20 29.71 1006 10 16 0.00 0.00
9:51 pm 21:51 Cloudy 55 12.8 51 10.6 86 86 WNW 12 19 29.73 1007 10 16 0.01 0.13
10:51 pm 22:51 Cloudy 54 12.2 51 10.6 90 90 NNW 8 13 29.74 1007 10 16 0.01 0.13
11:24 pm 23:24 Cloudy with Rain 53 11.7 52 11.1 96 96 WNW 14 22 29.81 1010 6 10 0.03 0.76
11:51 pm 23:51 Cloudy with Rain 52 11.1 51 10.6 97 97 WNW 14 22 29.75 1008 7 11 0.09 2.29

Powered by AerisWeather